When you browse on this site, cookies collect data to enhance your experience and personalize the content and advertising you see.
Visit our Privacy Policy to learn more. By continuing to use the site, you agree to this use of cookies and data.
  • In Hungary
  • List of Countries
  • For 7 days
  • Water Temperature
  • Weather Map
  • News
  • Weather Widgets
  • user-avatar
    Login

    Hourly Weather Ipswich

    Today, 4 June, Thursday

    Time Temperature Precipitation Wind Pressure Humidity
    00:00 +10°C° 0 mm 6 mps 753 mmHg 89%
    01:00 +10°C° 0 mm 6 mps 752 mmHg 87%
    02:00 +10°C° 0 mm 6 mps 752 mmHg 86%
    03:00 +10°C° 0 mm 6 mps 751 mmHg 84%
    04:00 +10°C° 0 mm 6 mps 751 mmHg 84%
    05:00 +10°C° 0 mm 6 mps 751 mmHg 85%
    06:00 +10°C° 0 mm 6 mps 751 mmHg 84%
    07:00 +11°C° 0 mm 6 mps 751 mmHg 80%
    08:00 +11°C° 0 mm 7 mps 751 mmHg 75%
    09:00 +12°C° 0 mm 7 mps 751 mmHg 70%
    10:00 +13°C° 0.1 mm 6 mps 750 mmHg 67%
    11:00 +14°C° 0.1 mm 6 mps 750 mmHg 63%
    12:00 +15°C° 0.1 mm 6 mps 750 mmHg 59%
    13:00 +15°C° 0.1 mm 5 mps 750 mmHg 60%
    14:00 +15°C° 0.1 mm 5 mps 749 mmHg 60%
    15:00 +15°C° 0.1 mm 4 mps 749 mmHg 61%
    16:00 +14°C° 0.2 mm 3 mps 749 mmHg 66%
    17:00 +14°C° 0.2 mm 2 mps 748 mmHg 71%
    18:00 +14°C° 0.2 mm 2 mps 748 mmHg 76%
    19:00 +12°C° 0.1 mm 2 mps 748 mmHg 80%
    20:00 +10°C° 0.1 mm 2 mps 748 mmHg 84%
    21:00 +9°C° 0.1 mm 3 mps 748 mmHg 88%
    22:00 +9°C° 0.2 mm 3 mps 747 mmHg 90%
    23:00 +8°C° 0.2 mm 4 mps 747 mmHg 92%

    Tomorrow, 5 June, Friday

    Time Temperature Precipitation Wind Pressure Humidity
    00:00 +8°C° 0.2 mm 5 mps 746 mmHg 95%
    01:00 +8°C° 0.1 mm 6 mps 746 mmHg 95%
    02:00 +8°C° 0.1 mm 6 mps 745 mmHg 95%
    03:00 +8°C° 0.1 mm 7 mps 744 mmHg 95%
    04:00 +8°C° 0.1 mm 7 mps 744 mmHg 95%
    05:00 +8°C° 0.1 mm 7 mps 744 mmHg 94%
    06:00 +6°C° 0.1 mm 7 mps 744 mmHg 94%
    07:00 +7°C° 0.5 mm 6 mps 744 mmHg 93%
    08:00 +7°C° 0.5 mm 5 mps 744 mmHg 93%
    09:00 +8°C° 0.5 mm 5 mps 744 mmHg 93%
    10:00 +8°C° 0.9 mm 4 mps 744 mmHg 90%
    11:00 +8°C° 0.9 mm 4 mps 744 mmHg 88%
    12:00 +10°C° 0.9 mm 4 mps 744 mmHg 85%
    13:00 +9°C° 0.7 mm 5 mps 744 mmHg 80%
    14:00 +10°C° 0.7 mm 6 mps 745 mmHg 74%
    15:00 +11°C° 0.7 mm 7 mps 745 mmHg 68%
    16:00 +10°C° 0.3 mm 6 mps 745 mmHg 71%
    17:00 +10°C° 0.3 mm 6 mps 745 mmHg 74%
    18:00 +10°C° 0.3 mm 6 mps 745 mmHg 77%
    19:00 +9°C° 0.1 mm 7 mps 745 mmHg 79%
    20:00 +6°C° 0.1 mm 7 mps 745 mmHg 81%
    21:00 +5°C° 0.1 mm 7 mps 746 mmHg 82%
    22:00 +5°C° 0 mm 8 mps 745 mmHg 82%
    23:00 +4°C° 0 mm 8 mps 745 mmHg 82%

    Day after tomorrow, 6 June, Saturday

    Time Temperature Precipitation Wind Pressure Humidity
    00:00 +4°C° 0 mm 8 mps 745 mmHg 82%
    01:00 +4°C° 0 mm 8 mps 745 mmHg 80%
    02:00 +3°C° 0 mm 9 mps 745 mmHg 78%
    03:00 +3°C° 0 mm 9 mps 745 mmHg 77%
    04:00 +3°C° 0 mm 10 mps 744 mmHg 75%
    05:00 +4°C° 0 mm 11 mps 744 mmHg 72%
    06:00 +5°C° 0 mm 12 mps 743 mmHg 70%
    07:00 +5°C° 0.1 mm 12 mps 743 mmHg 73%
    08:00 +7°C° 0.1 mm 12 mps 743 mmHg 76%
    09:00 +7°C° 0.1 mm 12 mps 743 mmHg 79%
    10:00 +7°C° 0.3 mm 11 mps 743 mmHg 82%
    11:00 +8°C° 0.3 mm 11 mps 743 mmHg 85%
    12:00 +8°C° 0.3 mm 10 mps 743 mmHg 88%
    13:00 +9°C° 0.8 mm 10 mps 744 mmHg 86%
    14:00 +10°C° 0.8 mm 9 mps 744 mmHg 85%
    15:00 +11°C° 0.8 mm 8 mps 745 mmHg 84%
    16:00 +11°C° 0.5 mm 8 mps 745 mmHg 84%
    17:00 +11°C° 0.5 mm 7 mps 746 mmHg 84%
    18:00 +13°C° 0.5 mm 6 mps 746 mmHg 84%
    19:00 +10°C° 0.1 mm 5 mps 747 mmHg 87%
    20:00 +9°C° 0.1 mm 5 mps 748 mmHg 90%
    21:00 +8°C° 0.1 mm 4 mps 749 mmHg 92%
    22:00 +7°C° 0 mm 4 mps 749 mmHg 93%
    23:00 +7°C° 0 mm 4 mps 749 mmHg 94%

    7 June, Sunday

    Time Temperature Precipitation Wind Pressure Humidity
    00:00 +7°C° 0 mm 4 mps 750 mmHg 95%
    01:00 +7°C° 0 mm 4 mps 750 mmHg 95%
    02:00 +6°C° 0 mm 4 mps 750 mmHg 96%
    03:00 +6°C° 0 mm 5 mps 751 mmHg 96%
    04:00 +7°C° 0 mm 5 mps 751 mmHg 95%
    05:00 +8°C° 0 mm 5 mps 751 mmHg 94%
    06:00 +8°C° 0 mm 5 mps 751 mmHg 93%
    07:00 +10°C° 0 mm 5 mps 752 mmHg 88%
    08:00 +12°C° 0 mm 5 mps 752 mmHg 84%
    09:00 +14°C° 0 mm 5 mps 752 mmHg 79%
    10:00 +14°C° 0.3 mm 5 mps 753 mmHg 81%
    11:00 +14°C° 0.3 mm 5 mps 753 mmHg 84%
    12:00 +14°C° 0.3 mm 4 mps 753 mmHg 86%
    13:00 +14°C° 0.5 mm 4 mps 753 mmHg 85%
    14:00 +14°C° 0.5 mm 4 mps 753 mmHg 85%
    15:00 +15°C° 0.5 mm 4 mps 754 mmHg 84%
    16:00 +14°C° 0.4 mm 4 mps 754 mmHg 86%
    17:00 +13°C° 0.4 mm 5 mps 754 mmHg 88%
    18:00 +12°C° 0.4 mm 5 mps 754 mmHg 90%
    19:00 +12°C° 0 mm 5 mps 755 mmHg 92%
    20:00 +11°C° 0 mm 4 mps 755 mmHg 93%
    21:00 +10°C° 0 mm 4 mps 756 mmHg 95%
    22:00 +9°C° 0.1 mm 5 mps 756 mmHg 95%
    23:00 +9°C° 0.1 mm 5 mps 756 mmHg 96%

    8 June, Monday

    Time Temperature Precipitation Wind Pressure Humidity
    00:00 +9°C° 0.1 mm 6 mps 756 mmHg 96%
    01:00 +9°C° 1.1 mm 6 mps 756 mmHg 96%
    02:00 +9°C° 1.1 mm 6 mps 756 mmHg 96%
    03:00 +10°C° 1.1 mm 7 mps 756 mmHg 96%
    04:00 +10°C° 1 mm 7 mps 757 mmHg 96%
    05:00 +10°C° 1 mm 7 mps 757 mmHg 96%
    06:00 +10°C° 1 mm 7 mps 757 mmHg 95%
    07:00 +10°C° 0.4 mm 7 mps 758 mmHg 94%
    08:00 +11°C° 0.4 mm 7 mps 758 mmHg 92%
    09:00 +11°C° 0.4 mm 7 mps 758 mmHg 90%
    10:00 +13°C° 0.4 mm 6 mps 758 mmHg 88%
    11:00 +14°C° 0.4 mm 6 mps 758 mmHg 85%
    12:00 +14°C° 0.4 mm 6 mps 758 mmHg 83%
    13:00 +15°C° 0.6 mm 6 mps 759 mmHg 82%
    14:00 +15°C° 0.6 mm 5 mps 759 mmHg 82%
    15:00 +16°C° 0.6 mm 5 mps 759 mmHg 82%
    16:00 +15°C° 0.5 mm 5 mps 759 mmHg 83%
    17:00 +14°C° 0.5 mm 5 mps 759 mmHg 85%
    18:00 +14°C° 0.5 mm 6 mps 759 mmHg 87%
    19:00 +13°C° 0 mm 5 mps 760 mmHg 90%
    20:00 +10°C° 0 mm 5 mps 760 mmHg 92%
    21:00 +9°C° 0 mm 5 mps 761 mmHg 95%
    22:00 +9°C° 0 mm 5 mps 761 mmHg 96%
    23:00 +9°C° 0 mm 5 mps 761 mmHg 96%

    9 June, Tuesday

    Time Temperature Precipitation Wind Pressure Humidity
    00:00 +9°C° 0 mm 5 mps 761 mmHg 97%
    01:00 +9°C° 0 mm 5 mps 761 mmHg 97%
    02:00 +10°C° 0 mm 5 mps 761 mmHg 96%
    03:00 +10°C° 0 mm 5 mps 761 mmHg 96%
    04:00 +12°C° 0 mm 5 mps 761 mmHg 95%
    05:00 +12°C° 0 mm 5 mps 761 mmHg 95%
    06:00 +12°C° 0 mm 5 mps 762 mmHg 94%
    07:00 +13°C° 0.2 mm 5 mps 762 mmHg 91%
    08:00 +14°C° 0.2 mm 5 mps 762 mmHg 88%
    09:00 +15°C° 0.2 mm 4 mps 762 mmHg 85%
    10:00 +15°C° 0.5 mm 4 mps 762 mmHg 85%
    11:00 +15°C° 0.5 mm 4 mps 762 mmHg 85%
    12:00 +15°C° 0.5 mm 4 mps 762 mmHg 85%
    13:00 +15°C° 0.4 mm 5 mps 762 mmHg 85%
    14:00 +15°C° 0.4 mm 5 mps 762 mmHg 85%
    15:00 +15°C° 0.4 mm 6 mps 762 mmHg 84%
    16:00 +15°C° 0 mm 6 mps 762 mmHg 84%
    17:00 +14°C° 0 mm 6 mps 763 mmHg 83%
    18:00 +14°C° 0 mm 6 mps 763 mmHg 82%
    19:00 +13°C° 0 mm 5 mps 763 mmHg 85%
    20:00 +10°C° 0 mm 5 mps 764 mmHg 88%
    21:00 +9°C° 0 mm 5 mps 764 mmHg 91%
    22:00 +9°C° 0 mm 5 mps 764 mmHg 92%
    23:00 +8°C° 0 mm 4 mps 764 mmHg 92%
    Show more